Theta_e
306 307 310 310 309 307 307 309 311 313 316 318 319 320 320 320 324 322 319 320 320 320 326 328 330 331 329 327 324 321 316 322 321 320 320 319 317 317 316 312 315 312 312
309 308 308 308 307 305 306 306 308 308 311 314 316 318 319 318 319 321 322 326 324 322 324 325 327 333 328 327 325 322 318 323 321 318 317 316 315 315 314 310 309 310 307
311 308 307 306 306 306 307 306 307 307 308 308 311 315 317 318 316 320 321 323 322 324 324 324 324 327 324 325 326 324 320 324 322 318 316 317 314 313 311 310 306 307 308
309 307 306 306 306 306 306 305 306 306 305 307 310 313 316 317 316 318 319 317 318 322 326 324 325 324 322 323 324 325 321 321 319 318 315 316 313 312 312 309 307 306 306
306 304 304 304 305 305 304 305 305 305 305 305 305 307 310 312 316 313 313 313 312 314 321 325 323 324 324 323 324 322 321 321 319 318 315 315 312 309 309 310 307 306 306
303 302 303 302 303 303 302 303 302 301 302 302 303 304 304 307 305 305 303 307 308 308 309 314 317 322 321 318 317 319 321 322 320 319 317 314 315 313 313 310 309 305 304
300 301 301 300 300 300 300 300 298 297 298 299 300 301 302 304 304 303 304 302 304 305 306 308 312 318 317 322 319 314 315 316 320 323 318 318 316 315 312 310 307 307 305
298 298 299 299 297 297 296 294 294 294 296 296 296 298 299 301 301 300 302 301 302 304 305 307 307 309 312 316 321 322 320 321 319 320 323 323 321 319 315 312 311 308 307
297 296 297 297 295 294 293 292 292 292 292 293 295 296 296 297 299 298 299 300 303 301 304 305 305 306 305 301 314 318 322 322 316 313 312 313 309 309 311 312 307 306 304
295 295 296 295 294 293 295 295 295 294 292 294 294 294 296 295 297 297 297 297 298 302 302 302 304 303 302 298 305 315 317 321 322 316 315 309 309 310 308 315 310 307 304
295 295 295 294 293 293 294 295 294 293 293 292 293 293 293 294 294 295 296 296 298 299 301 301 303 302 300 296 297 308 315 319 319 322 319 318 318 314 314 316 314 313 308
296 296 293 291 293 293 291 290 293 292 292 292 292 293 294 293 295 295 295 295 297 297 298 299 299 297 295 297 297 299 299 303 318 321 320 317 316 316 316 316 316 317 318
293 292 291 293 292 290 291 291 291 291 290 290 290 291 292 294 296 296 295 295 296 299 296 296 295 294 296 300 300 299 299 308 314 317 319 320 321 322 320 318 317 316 312
291 291 291 291 291 292 292 292 291 290 289 289 289 289 290 291 292 294 295 296 297 296 297 296 295 295 296 299 302 304 306 309 312 314 318 320 321 321 319 320 314 313 309
291 290 291 291 291 290 291 291 290 291 291 289 289 290 289 289 291 292 292 293 294 295 294 294 293 292 293 300 305 306 307 308 309 313 316 318 318 319 319 321 317 313 311
289 290 290 290 290 290 289 289 291 291 291 291 291 290 291 291 290 290 291 291 291 291 291 291 292 293 292 295 302 306 307 307 307 312 314 317 317 317 318 319 315 313 311
290 290 290 290 289 289 289 288 287 290 292 291 291 290 290 290 290 290 290 290 290 290 289 289 291 293 294 296 298 303 307 308 307 309 312 315 317 317 313 317 315 314 311
290 290 290 289 289 289 289 288 288 287 287 288 291 291 291 290 290 290 290 289 289 290 290 290 291 293 294 296 298 300 307 306 307 308 311 313 316 317 316 317 316 314 310
289 289 290 290 290 290 290 289 289 289 288 288 289 290 290 290 290 290 290 289 289 290 291 291 292 294 295 297 299 301 306 309 309 309 312 313 313 312 316 316 316 304 304
289 290 290 290 289 289 289 289 289 289 288 288 288 288 290 289 289 290 290 290 291 291 292 292 292 294 295 297 299 301 304 305 304 308 308 309 311 314 314 315 316 313 310
289 290 288 289 289 290 290 289 289 288 287 287 287 289 287 287 287 288 288 290 290 291 293 293 292 294 295 298 299 300 302 305 306 307 307 305 306 308 311 314 315 315 313
289 289 289 289 290 289 289 288 288 287 287 286 286 287 286 286 286 287 288 290 291 292 293 294 295 294 296 297 298 299 302 303 304 306 306 305 306 307 311 312 311 313 313
288 288 289 289 289 288 288 288 287 286 286 286 286 285 286 286 286 287 288 290 292 292 293 294 295 296 296 297 299 300 300 302 304 303 304 305 306 307 306 307 313 313 313
288 289 288 288 288 287 287 286 286 285 285 285 285 285 285 286 286 286 287 289 290 292 293 294 295 295 296 297 298 299 301 305 306 307 305 304 304 303 307 307 308 312 313
288 288 287 287 286 286 285 285 285 284 284 284 284 284 285 285 286 286 287 288 289 290 292 293 294 295 296 297 298 298 296 290 303 297 303 304 304 306 310 308 309 309 311
287 287 287 286 285 285 284 284 284 284 283 283 284 284 284 285 285 286 287 287 288 289 291 292 295 296 296 297 299 294 289 288 295 292 303 303 302 306 311 310 310 310 307
Wind_Speed
3 3 6 6 5 4 4 4 5 4 5 6 7 7 7 6 6 5 4 5 6 6 6 6 6 5 2 2 4 4 5 4 4 2 2 3 3 6 4 3 5 4 3
6 5 6 6 4 5 5 4 3 4 5 6 7 7 7 7 6 6 6 5 4 6 6 7 7 3 1 1 4 6 6 6 5 5 2 3 3 4 4 5 3 3 2
4 6 9 9 8 7 7 7 7 6 5 5 5 7 7 7 7 7 5 5 5 7 7 7 5 5 4 3 4 4 3 5 7 5 4 3 3 3 3 2 2 2 2
0 6 6 6 6 6 5 6 6 6 6 7 6 6 7 6 6 6 6 7 6 7 6 6 5 5 5 4 4 4 3 3 3 6 2 6 3 3 4 3 3 2 3
6 7 6 5 4 4 8 7 8 8 7 7 7 6 6 6 6 7 6 6 6 6 6 4 5 7 10 7 5 5 5 4 5 7 4 4 5 5 9 4 4 3 3
5 5 4 5 5 6 6 6 6 7 7 6 7 7 8 6 10 12 8 7 7 6 5 5 5 6 7 9 9 11 9 8 8 6 5 8 10 8 7 7 5 3 2
4 4 4 4 4 3 4 5 6 7 7 6 7 6 9 10 12 13 9 5 6 8 8 5 5 3 5 6 7 8 10 12 9 12 11 10 9 11 11 10 7 4 4
4 4 3 3 4 4 4 5 6 5 6 6 8 7 7 8 15 17 16 7 7 6 7 7 6 8 6 7 8 5 8 8 7 6 8 7 5 8 9 4 7 5 5
4 5 5 4 5 4 4 6 6 6 6 6 7 9 8 9 14 16 17 12 9 8 6 7 7 8 9 9 6 10 8 8 9 9 7 10 12 15 10 11 7 7 1
5 6 5 5 6 6 9 11 5 5 6 8 9 7 12 11 13 16 16 9 11 9 8 6 9 11 10 11 6 6 9 8 8 8 4 5 8 16 20 10 10 9 4
5 5 5 5 6 7 9 8 9 8 9 8 10 8 10 11 11 17 18 10 9 10 7 8 5 11 14 11 10 6 9 7 6 9 11 9 9 10 9 6 9 8 6
7 8 7 6 8 9 7 6 8 8 9 10 9 8 8 9 13 15 16 13 13 6 6 3 4 12 16 17 11 13 13 9 5 7 7 8 8 6 7 9 9 5 3
8 7 7 8 7 5 7 7 7 7 7 7 7 7 8 8 7 14 13 12 12 4 2 5 9 11 15 13 13 15 12 4 5 6 8 9 8 8 8 8 7 7 5
8 9 9 9 10 9 7 6 7 7 7 7 8 8 8 9 8 8 7 7 8 6 7 6 10 9 13 13 8 9 6 5 4 5 4 3 6 6 8 8 7 9 4
8 10 9 7 8 8 7 7 7 8 8 8 8 8 9 10 9 10 10 9 8 8 10 9 8 6 3 7 4 7 7 6 4 4 5 4 5 6 8 10 9 8 6
11 8 8 8 7 7 7 8 10 14 17 18 19 16 11 17 19 19 20 20 21 19 10 9 9 7 4 5 6 7 8 7 6 5 5 5 6 8 7 7 9 10 9
9 9 8 8 7 8 8 8 9 8 15 16 17 19 21 20 20 19 18 19 19 15 9 7 9 8 6 6 5 8 7 8 5 6 6 7 6 5 7 8 8 9 9
10 17 9 8 8 8 8 8 8 9 9 9 10 13 16 19 19 19 16 14 8 9 8 7 8 9 7 7 6 6 7 6 7 6 6 5 6 6 7 8 9 9 9
9 8 8 8 8 10 9 9 9 9 9 9 8 9 10 16 18 18 15 8 8 8 8 8 8 8 8 7 6 6 7 6 7 6 5 6 6 3 5 8 8 10 11
9 16 13 9 9 9 8 9 9 9 9 9 8 8 7 8 8 7 7 7 8 9 9 9 7 8 8 8 7 4 6 4 4 5 5 5 4 4 6 4 7 10 11
8 9 11 9 9 9 9 9 9 9 9 9 9 8 10 9 8 8 9 8 8 8 8 8 7 8 7 7 6 5 5 4 3 3 4 4 4 4 4 4 3 5 12
8 9 9 9 9 9 9 10 9 9 9 9 9 9 11 8 8 8 7 9 8 8 7 8 7 7 7 7 6 6 6 5 4 4 4 4 4 4 4 3 4 4 9
9 10 9 10 9 12 10 10 9 9 9 10 9 9 8 8 7 8 7 8 7 7 7 8 8 6 5 6 4 5 6 5 5 4 5 5 5 4 4 3 4 6 10
9 10 10 10 10 10 10 11 10 11 10 10 9 8 8 8 8 8 8 7 7 7 7 7 7 8 7 5 5 6 4 3 4 6 7 5 4 4 5 4 3 3 9
9 9 10 10 10 10 11 11 11 10 10 9 9 8 8 8 8 8 7 7 7 7 6 6 6 8 9 10 7 6 7 5 7 7 4 5 4 6 7 6 6 4 7
9 10 10 9 10 10 11 11 11 10 10 10 9 9 9 8 8 7 7 7 6 6 5 6 8 11 11 8 8 6 6 6 7 7 5 4 2 4 5 7 8 5 12
Wind_Direction
28 8 64 61 37 32 41 26 13 357 353 342 330 326 335 343 337 332 279 241 235 254 274 280 269 275 270 193 200 182 169 158 146 139 112 136 126 141 131 122 122 117 144
356 17 41 30 11 12 11 10 14 350 338 332 322 310 319 328 336 345 334 315 264 252 242 254 260 271 286 231 229 213 173 158 125 156 134 136 140 151 149 143 140 129 168
9 29 22 15 16 12 9 24 20 358 350 334 310 288 297 308 325 328 338 321 301 283 249 244 241 236 242 234 208 249 263 171 147 145 151 138 112 146 122 121 164 141 203
109 86 80 75 24 6 357 20 15 7 3 359 339 314 291 283 297 315 326 327 324 329 296 250 225 229 223 222 240 236 200 156 119 133 233 145 116 143 130 168 160 196 185
40 47 49 44 48 15 14 8 8 6 352 332 340 344 326 317 301 319 314 311 315 327 333 313 274 247 242 216 202 202 174 165 157 153 188 153 153 157 192 176 170 155 196
60 54 45 34 27 20 10 352 358 345 326 326 333 328 320 311 308 316 328 310 308 309 310 315 299 286 276 273 215 202 191 175 175 169 179 196 193 180 166 163 158 146 228
37 21 26 24 7 355 342 336 326 314 311 313 315 318 317 311 310 316 330 297 298 300 300 304 305 301 312 282 275 208 221 211 180 183 190 189 189 187 164 162 178 173 159
11 1 353 344 315 307 296 294 296 296 298 298 287 298 296 297 314 315 319 297 278 277 288 295 300 299 309 314 317 280 220 220 207 186 191 191 157 179 177 145 159 124 104
318 312 307 304 292 291 279 270 266 272 275 276 285 292 290 292 293 300 308 306 294 278 269 280 288 290 288 306 315 290 283 224 195 191 155 172 169 146 170 124 157 146 165
308 306 295 286 283 305 312 312 293 261 266 275 267 269 273 282 282 286 294 292 286 288 292 262 267 278 285 294 295 279 270 265 207 159 155 122 161 171 174 161 154 166 128
275 270 287 323 320 303 319 320 308 299 291 267 272 270 271 272 281 278 280 285 277 279 279 289 282 279 293 296 286 271 263 264 230 211 188 184 168 175 173 162 172 163 162
321 332 336 328 321 322 312 300 303 304 303 295 291 287 275 272 262 268 271 279 280 269 275 304 333 321 305 306 304 277 258 278 269 219 199 172 170 161 173 179 176 177 165
323 319 300 311 303 282 286 296 293 288 281 286 290 290 291 294 279 277 284 286 274 281 309 304 312 305 306 300 285 269 270 238 241 258 225 209 202 185 152 155 151 125 86
318 314 314 315 315 315 307 302 305 305 303 299 298 291 288 286 286 290 293 296 273 287 304 310 311 295 278 267 279 278 229 212 221 246 253 250 215 180 182 170 162 163 112
319 322 316 312 312 312 307 302 294 286 279 285 282 282 284 278 276 287 292 290 288 279 306 301 298 299 298 297 250 250 237 211 199 225 237 214 198 190 201 186 164 161 159
325 319 312 312 311 306 301 298 277 270 271 267 267 270 276 275 278 277 275 274 277 280 282 271 271 270 262 271 298 255 233 214 189 186 228 233 202 186 193 174 153 165 165
308 308 302 302 300 301 301 298 300 294 280 272 267 265 268 269 276 275 272 269 267 271 261 255 256 260 258 262 264 284 232 214 194 181 206 214 215 197 176 177 167 172 171
305 302 298 293 290 290 288 288 287 290 293 294 269 254 259 264 270 272 276 278 264 247 245 241 243 252 251 249 248 276 240 202 192 190 186 221 209 202 186 181 177 176 167
299 296 295 292 287 285 285 284 280 279 281 282 287 278 270 260 261 267 266 267 260 248 247 235 233 245 250 243 240 248 266 214 190 181 169 192 208 183 200 199 191 181 158
296 294 294 294 292 291 287 285 284 284 285 282 283 281 283 281 279 268 251 256 259 251 245 240 234 235 239 239 238 236 265 223 193 191 157 192 195 203 188 192 203 188 181
298 297 292 288 289 291 293 294 293 292 290 288 284 283 277 278 280 273 272 255 251 263 251 241 239 240 238 239 217 235 246 235 188 184 156 177 183 188 177 164 168 209 189
302 301 298 295 299 298 296 296 294 293 291 291 292 288 277 272 270 270 273 260 253 253 255 261 243 235 237 235 221 220 228 205 194 196 177 177 190 179 159 160 186 191 184
299 298 306 306 303 302 303 301 299 296 294 293 291 289 285 277 272 267 265 273 256 250 245 258 254 242 227 240 259 230 220 200 198 185 178 188 193 188 172 180 199 195 186
301 310 310 306 307 308 306 305 302 299 295 294 290 284 278 276 272 266 264 265 263 257 244 246 240 237 242 235 228 237 256 210 186 190 182 169 179 190 197 174 195 200 183
315 314 312 312 311 311 309 307 307 303 299 296 293 288 282 274 272 267 261 255 258 257 249 247 240 247 237 234 241 228 223 216 171 141 144 148 191 206 210 178 180 191 161
322 319 316 315 315 314 311 311 310 309 306 302 297 290 284 279 273 267 259 252 249 256 247 260 234 233 231 230 228 224 203 178 159 161 172 146 188 218 198 190 174 191 143